This demonstration page uses our WeatherBlox Daily Observations layout. Learn more.

39.01783, -85.05884

Hourly Observations for September 14, 2018

Temp ( °F °C ) Dew Point ( °F °C ) Humidity (%) Winds ( mph kmh ) Pressure ( in mb ) Visibility ( mi km ) Precip ( " mm )
12:52 am 00:52 Clear 72 22.2 66 18.9 82 82 Calm 30.06 1018 9 14.484096 0 0
1:52 am 01:52 Clear 70 21.1 67 19.4 90 90 N 3 6 30.06 1018 8 12.874752 0 0
2:52 am 02:52 Clear 69 20.6 66 18.9 90 90 Calm 30.06 1018 8 12.874752 0 0
3:52 am 03:52 Clear 69 20.6 65 18.3 87 87 N 3 6 30.06 1018 9 14.484096 0 0
4:52 am 04:52 Clear 67 19.4 66 18.9 97 97 NNW 3 6 30.06 1018 7 11.265408 0 0
5:52 am 05:52 Mostly Clear 67 19.4 65 18.3 93 93 N 5 7 30.06 1018 8 12.874752 0 0
6:52 am 06:52 Partly Cloudy 68 20 65 18.3 90 90 N 3 6 30.09 1019 8 12.874752 0 0
7:52 am 07:52 Mostly Sunny 67 19.4 65 18.3 93 93 N 5 7 30.09 1019 8 12.874752 0 0
8:52 am 08:52 Mostly Sunny 71 21.7 67 19.4 87 87 N 5 7 30.09 1019 7 11.265408 0 0
9:52 am 09:52 Partly Cloudy 75 23.9 68 20 79 79 N 6 9 30.09 1019 8 12.874752 0 0
10:52 am 10:52 Mostly Sunny 80 26.7 70 21.1 71 71 N 5 7 30.09 1019 10 16.09344 0 0
11:52 am 11:52 Mostly Sunny 83 28.3 70 21.1 65 65 N 5 7 30.06 1018 10 16.09344 0 0
12:52 pm 12:52 Mostly Sunny 84 28.9 69 20.6 61 61 N 6 9 30.06 1018 10 16.09344 0 0
1:52 pm 13:52 Partly Cloudy 83 28.3 68 20 61 61 ENE 5 7 30.06 1018 10 16.09344 0 0
2:52 pm 14:52 Partly Cloudy 87 30.6 67 19.4 51 51 NNE 8 13 30.03 1017 10 16.09344 0 0
3:52 pm 15:52 Mostly Sunny 88 31.1 67 19.4 50 50 NNE 9 15 30.03 1017 10 16.09344 0 0
4:52 pm 16:52 Mostly Sunny 88 31.1 68 20 52 52 N 9 15 30.03 1017 10 16.09344 0 0
5:52 pm 17:52 Mostly Sunny 88 31.1 67 19.4 50 50 N 8 13 30 1016 10 16.09344 0 0
6:52 pm 18:52 Partly Cloudy 84 28.9 68 20 59 59 NNW 7 11 30 1016 10 16.09344 0 0
7:52 pm 19:52 Mostly Cloudy 81 27.2 68 20 65 65 NNW 7 11 30 1016 10 16.09344 0 0
8:52 pm 20:52 Mostly Cloudy 79 26.1 67 19.4 67 67 N 7 11 30.03 1017 10 16.09344 0 0
9:52 pm 21:52 Partly Cloudy 78 25.6 67 19.4 69 69 N 7 11 30.03 1017 10 16.09344 0 0
10:52 pm 22:52 Partly Cloudy 77 25 67 19.4 71 71 N 9 15 30.03 1017 10 16.09344 0 0
11:52 pm 23:52 Mostly Clear 75 23.9 67 19.4 76 76 N 8 13 30.03 1017 10 16.09344 0 0

Powered by AerisWeather